[[{"header":{"parameterUnit":"m.s-1","parameterCategory":1,"la1":30.2991,"la2":30.254,"lo1":-89.0895,"lo2":-89.0444,"dy":0.0017,"dx":0.0017,"nx":28,"ny":28,"refTime":"2024-10-03T03:00:00:Z","depth":0,"parameterNumber":2,"parameterNumberName":"U-component_of_WINDS"},"data":[0,0,0,0,0,0,0,0,0,0,0,0,0,0,0,0,0,0,0,0,0,0,0,0,0,0,0,0,0,0,0,0,0,0,0,0,0,0,0,0,0,0,0,0,0,0,0,0,0,0,0,0,0,0,0,0,0,0,-2.6322,-2.6321,0,-2.6232,-2.6231,-2.623,-2.6152,-2.6152,-2.6151,-2.615,-2.6061,-2.6059,-2.6058,0,0,0,0,0,0,0,0,0,0,0,0,0,-2.6428,-2.6426,-2.6322,-2.6321,-2.6319,-2.6232,-2.6231,-2.6229,-2.6153,-2.6152,-2.6151,-2.615,-2.6061,-2.606,-2.6058,0,0,0,0,0,0,0,0,0,0,0,0,0,-2.6364,-2.6426,-2.6322,-2.627,-2.6265,-2.6232,-2.6231,-2.6229,-2.6153,-2.6152,-2.615,-2.6149,-2.6062,-2.606,-2.6058,-2.6069,0,0,-2.605,-2.6049,0,0,0,0,0,0,0,0,-2.6368,-2.6361,-2.6279,-2.6274,-2.6268,-2.6202,-2.6235,-2.6176,-2.6153,-2.6196,-2.615,-2.6148,-2.6109,-2.6103,-2.6089,-2.6065,-2.6061,-2.605,-2.6049,-2.6048,-2.6047,0,0,0,0,0,0,0,-2.6373,-2.6364,-2.6286,-2.6278,-2.6271,-2.6252,-2.6242,-2.6224,-2.6161,-2.6192,-2.6186,-2.6176,-2.6106,-2.6091,-2.6086,-2.606,-2.605,-2.6048,-2.6047,-2.6046,-2.6038,-2.6039,0,0,0,0,0,0,-2.6385,-2.6368,-2.6289,-2.6283,-2.6316,-2.6251,-2.624,-2.6224,-2.6161,-2.615,-2.6177,-2.6173,-2.6096,-2.6089,-2.6083,-2.6089,-2.6048,-2.6046,-2.6044,-2.6037,-2.6038,-2.604,0,0,0,0,0,0,-2.6387,-2.6378,-2.6293,-2.6324,-2.6312,-2.6251,-2.6234,-2.6223,-2.6209,-2.615,-2.6139,-2.6174,-2.6095,-2.6086,-2.6072,-2.6085,-2.6045,-2.6042,-2.6035,-2.6037,-2.6039,-2.6105,0,0,0,0,0,0,-2.6391,-2.638,-2.6383,-2.6325,-2.631,-2.6283,-2.6235,-2.6223,-2.6205,-2.6198,-2.6144,-2.6134,-2.6093,-2.6076,-2.607,-2.6081,-2.6041,-2.6034,-2.6036,-2.6038,-2.6101,-2.6109,-2.6115,0,0,0,0,0,-2.6395,-2.6407,-2.6384,-2.6375,-2.6314,-2.6284,-2.6276,-2.6228,-2.6206,-2.6209,-2.6171,-2.6135,-2.6086,-2.6075,-2.6068,-2.6079,-2.6033,-2.6036,-2.6038,-2.6098,-2.6107,-2.6115,0,0,0,0,0,0,-2.647,-2.6398,-2.6372,-2.6366,-2.6331,-2.6271,-2.6274,-2.624,-2.6212,-2.6207,-2.615,-2.6138,-2.613,-2.6104,-2.6093,-2.6085,-2.6054,-2.6056,-2.6103,-2.6111,-2.6118,-2.6123,-2.6039,0,0,0,0,0,-2.6486,-2.6468,-2.6406,-2.6407,-2.6391,-2.6335,-2.6321,-2.6287,-2.6249,-2.6235,-2.6196,-2.6161,-2.6137,-2.6123,-2.6098,-2.6098,-2.6084,-2.6102,-2.6109,-2.6115,-2.6116,-2.6111,-2.6117,-2.6048,-2.6048,-2.6048,0,0,-2.6519,-2.6477,-2.647,-2.6421,-2.639,-2.6372,-2.6324,-2.6307,-2.6293,-2.6233,-2.6215,-2.6186,-2.6144,-2.6136,-2.613,-2.6113,-2.6132,-2.6118,-2.6123,-2.6121,-2.6114,-2.612,-2.6126,-2.605,-2.605,-2.605,0,0,-2.6569,-2.6536,-2.6531,-2.6501,-2.6454,-2.6417,-2.6416,-2.6361,-2.6338,-2.632,-2.6273,-2.6256,-2.6217,-2.6188,-2.6168,-2.6205,-2.617,-2.6199,-2.6234,-2.623,-2.6235,-2.6239,-2.625,-2.6255,-2.62,-2.6201,-2.6201,0,-2.6615,-2.6585,-2.6534,-2.6518,-2.6497,-2.644,-2.6434,-2.6408,-2.6357,-2.6344,-2.6325,-2.6273,-2.6241,-2.6224,-2.6232,-2.6219,-2.6215,-2.6203,-2.6238,-2.6242,-2.6246,-2.6255,-2.6259,-2.6204,-2.6204,-2.6203,-2.6203,0,-2.6644,-2.6624,-2.6625,-2.6574,-2.6554,-2.6544,-2.649,-2.6476,-2.6444,-2.6408,-2.639,-2.6349,-2.6313,-2.6307,-2.6277,-2.6285,-2.6276,-2.6249,-2.6216,-2.6257,-2.6264,-2.6267,-2.6209,-2.6208,-2.6207,-2.6206,0,0,-2.6738,-2.6657,-2.6659,-2.6633,-2.6577,-2.6561,-2.6548,-2.6511,-2.6499,-2.6466,-2.6452,-2.6419,-2.6393,-2.6371,-2.6336,-2.6333,-2.636,-2.6306,-2.6304,-2.6315,-2.6364,-2.6383,-2.6388,-2.6338,-2.6339,-2.6339,-2.6367,0,-2.6777,-2.6748,-2.67,-2.6687,-2.6667,-2.6612,-2.66,-2.6564,-2.6531,-2.6509,-2.6472,-2.6449,-2.6417,-2.6403,-2.6397,-2.6358,-2.6369,-2.6356,-2.6324,-2.6323,-2.6333,-2.6392,-2.6412,-2.6441,-2.637,-2.637,-2.6371,0,-2.6818,-2.6785,-2.6769,-2.6711,-2.6701,-2.6691,-2.6652,-2.6633,-2.659,-2.6566,-2.654,-2.6502,-2.6484,-2.6456,-2.643,-2.6422,-2.6407,-2.6386,-2.6385,-2.6379,-2.6348,-2.6385,-2.6449,-2.6452,-2.6375,-2.6375,-2.6375,0,-2.6885,-2.6837,-2.682,-2.6801,-2.6734,-2.6728,-2.67,-2.6657,-2.6637,-2.6604,-2.659,-2.6556,-2.6537,-2.6512,-2.6465,-2.6449,-2.6444,-2.6412,-2.6422,-2.6423,-2.6422,-2.6422,-2.6482,-2.6416,-2.6416,-2.6416,-2.6416,0,-2.6931,-2.6923,-2.6849,-2.6839,-2.6827,-2.6773,-2.6763,-2.673,-2.6692,-2.6674,-2.6626,-2.661,-2.655,-2.6527,-2.6491,-2.6474,-2.6467,-2.6446,-2.6436,-2.6449,-2.6451,-2.6436,-2.6432,-2.6417,-2.6417,-2.6417,-2.6417,0,-2.7004,-2.6954,-2.6932,-2.6869,-2.6853,-2.6848,-2.6794,-2.6782,-2.6745,-2.6723,-2.6715,-2.6657,-2.6628,-2.6579,-2.6536,-2.6512,-2.65,-2.6485,-2.6514,-2.6507,-2.6519,-2.6517,-2.6569,-2.6572,-2.6507,-2.6508,-2.6509,0,-2.7036,-2.7028,-2.6964,-2.6947,-2.692,-2.6895,-2.6874,-2.682,-2.68,-2.6749,-2.6743,-2.6709,-2.6679,-2.6635,-2.6589,-2.6556,-2.6538,-2.6558,-2.6533,-2.6545,-2.6535,-2.6535,-2.6533,-2.6564,-2.6565,-2.6565,-2.6566,0,-2.7097,-2.7072,-2.7042,-2.7003,-2.6979,-2.6946,-2.6912,-2.6901,-2.6839,-2.6819,-2.6787,-2.6764,-2.6718,-2.6685,-2.6644,-2.6616,-2.658,-2.6574,-2.6574,-2.6586,-2.6602,-2.6591,-2.6527,-2.6573,-2.6572,-2.6572,-2.6572,-2.6571,-2.7148,-2.7137,-2.7089,-2.7057,-2.7025,-2.6993,-2.6977,-2.6937,-2.6909,-2.6866,-2.6836,-2.6806,-2.6762,-2.6703,-2.6677,-2.6652,-2.6636,-2.6637,-2.6637,-2.6637,-2.6641,-2.6608,-2.6645,-2.6645,-2.6645,-2.6644,-2.6644,0,-2.7204,-2.717,-2.7141,-2.7092,-2.7067,-2.7034,-2.6993,-2.6974,-2.6947,-2.6909,-2.6879,-2.6842,-2.6809,-2.676,-2.6723,-2.6712,-2.6695,-2.6704,-2.6704,-2.6697,-2.6659,-2.6661,-2.6719,-2.6719,-2.6719,-2.6719,-2.6719,-2.6719,-2.723,-2.7209,-2.7178,-2.7139,-2.7105,-2.7073,-2.7052,-2.7022,-2.699,-2.695,-2.6921,-2.6889,-2.6846,-2.6805,-2.6773,-2.6759,-2.6747,-2.6761,-2.6742,-2.6707,-2.67,-2.6694,-2.6695,-2.6759,-2.6759,-2.6782,-2.6782,-2.6783]},{"header":{"parameterUnit":"m.s-1","parameterCategory":1,"la1":30.2991,"la2":30.254,"lo1":-89.0895,"lo2":-89.0444,"dy":0.0017,"dx":0.0017,"nx":28,"ny":28,"refTime":"2024-10-03T03:00:00:Z","depth":0,"parameterNumber":3,"parameterNumberName":"V-component_of_WINDS"},"data":[0,0,0,0,0,0,0,0,0,0,0,0,0,0,0,0,0,0,0,0,0,0,0,0,0,0,0,0,0,0,0,0,0,0,0,0,0,0,0,0,0,0,0,0,0,0,0,0,0,0,0,0,0,0,0,0,0,0,4.8123,4.8123,0,4.8069,4.8068,4.8068,4.7935,4.7932,4.7929,4.7927,4.7875,4.7876,4.7877,0,0,0,0,0,0,0,0,0,0,0,0,0,4.8118,4.8119,4.8123,4.8123,4.8122,4.8069,4.8068,4.8067,4.7935,4.7932,4.7928,4.7925,4.7874,4.7876,4.7877,0,0,0,0,0,0,0,0,0,0,0,0,0,4.8098,4.8119,4.8124,4.805,4.8042,4.8069,4.8068,4.8067,4.7936,4.7932,4.7928,4.7924,4.7874,4.7875,4.7877,4.7973,0,0,4.7883,4.7884,0,0,0,0,0,0,0,0,4.8099,4.8098,4.8061,4.8055,4.8047,4.8004,4.8047,4.8036,4.7937,4.7977,4.7926,4.7922,4.7921,4.7919,4.7918,4.797,4.7968,4.7883,4.7884,4.7885,4.7885,0,0,0,0,0,0,0,4.8101,4.81,4.8102,4.8061,4.8052,4.8021,4.8013,4.8044,4.7973,4.7973,4.7963,4.7958,4.7917,4.7917,4.7916,4.7967,4.7883,4.7885,4.7886,4.7886,4.8094,4.8098,0,0,0,0,0,0,4.8112,4.8102,4.8104,4.81,4.8063,4.8024,4.8016,4.8022,4.7973,4.7961,4.7962,4.7952,4.7916,4.7914,4.7914,4.8019,4.7885,4.7887,4.7888,4.809,4.8095,4.81,0,0,0,0,0,0,4.8113,4.8114,4.8106,4.8098,4.8095,4.8029,4.8037,4.8023,4.8023,4.7964,4.7951,4.7974,4.7912,4.7911,4.7958,4.8016,4.7887,4.7889,4.8084,4.8091,4.8097,4.8234,0,0,0,0,0,0,4.8113,4.8115,4.8148,4.81,4.8096,4.815,4.8041,4.8025,4.8026,4.8013,4.7972,4.7962,4.7909,4.7956,4.796,4.8016,4.7891,4.8079,4.8087,4.8095,4.8224,4.8244,4.8262,0,0,0,0,0,4.8113,4.819,4.8151,4.8152,4.8137,4.8154,4.8151,4.8087,4.8031,4.8065,4.8028,4.7963,4.8011,4.7962,4.7966,4.8023,4.8075,4.8085,4.8095,4.8215,4.824,4.8261,0,0,0,0,0,0,4.8248,4.8182,4.8138,4.8201,4.8184,4.8131,4.8172,4.8116,4.8115,4.8103,4.8026,4.8018,4.8076,4.8055,4.8003,4.8112,4.8032,4.8043,4.8123,4.8146,4.8165,4.8166,4.7892,0,0,0,0,0,4.8285,4.8303,4.8245,4.8307,4.83,4.8239,4.8243,4.8196,4.8175,4.8168,4.8134,4.8117,4.8128,4.8137,4.8144,4.8222,4.8211,4.8264,4.8283,4.8298,4.8307,4.8346,4.8368,4.8132,4.8132,4.8132,0,0,4.8361,4.8328,4.8344,4.8333,4.8314,4.8335,4.8233,4.826,4.8274,4.8172,4.8212,4.8189,4.8166,4.8228,4.8254,4.8213,4.8371,4.8311,4.8324,4.8324,4.8358,4.838,4.84,4.8139,4.8138,4.8137,0,0,4.8509,4.8487,4.8534,4.8518,4.849,4.8449,4.8461,4.8418,4.8396,4.8437,4.836,4.8379,4.84,4.8386,4.8382,4.8529,4.8469,4.8534,4.8631,4.867,4.8688,4.8704,4.8754,4.8773,4.8545,4.8545,4.8545,0,4.8607,4.8634,4.8567,4.8597,4.8595,4.8504,4.8552,4.854,4.8517,4.8518,4.8472,4.8496,4.8475,4.8532,4.8568,4.8569,4.858,4.8535,4.8691,4.8706,4.872,4.8766,4.8786,4.8553,4.8552,4.8551,4.855,0,4.8755,4.8775,4.8818,4.8795,4.8799,4.8839,4.8778,4.879,4.8745,4.8709,4.8752,4.8724,4.8722,4.8734,4.869,4.8786,4.876,4.8705,4.8621,4.8752,4.8793,4.8811,4.8564,4.8561,4.8559,4.8557,0,0,4.898,4.8923,4.8939,4.8928,4.8893,4.8907,4.8945,4.8943,4.8953,4.8943,4.8971,4.8993,4.894,4.8936,4.8891,4.8926,4.9041,4.8865,4.8863,4.8895,4.9142,4.918,4.9202,4.9003,4.9006,4.9009,4.9142,0,4.9116,4.9172,4.9115,4.9183,4.9201,4.9117,4.915,4.9133,4.9102,4.9114,4.9081,4.9095,4.9028,4.9024,4.9055,4.902,4.9088,4.9011,4.9027,4.9028,4.903,4.9224,4.9265,4.9391,4.9159,4.9162,4.9164,0,4.928,4.9275,4.9346,4.9306,4.9311,4.9341,4.9335,4.9348,4.9328,4.9303,4.93,4.9245,4.928,4.9204,4.925,4.9198,4.9203,4.9188,4.9191,4.9186,4.91,4.922,4.9431,4.9448,4.919,4.9187,4.9186,0,4.9433,4.9445,4.9487,4.9482,4.9438,4.946,4.9444,4.9419,4.9422,4.9419,4.942,4.9422,4.9421,4.9425,4.9372,4.9322,4.9425,4.9345,4.9404,4.9405,4.9424,4.9423,4.9634,4.9437,4.9437,4.9436,4.9436,0,4.9587,4.9632,4.9555,4.9581,4.963,4.9565,4.9616,4.9591,4.9571,4.9592,4.9523,4.9544,4.9476,4.9491,4.9451,4.9494,4.9496,4.9477,4.9465,4.948,4.9482,4.9477,4.9465,4.9441,4.944,4.9439,4.9438,0,4.9762,4.9713,4.9753,4.971,4.97,4.9738,4.9701,4.9724,4.969,4.9717,4.972,4.9668,4.9682,4.9631,4.9638,4.9611,4.9674,4.965,4.968,4.967,4.9731,4.9724,4.9943,4.9967,4.9759,4.9761,4.9763,0,4.9861,4.9893,4.9854,4.9862,4.9848,4.9863,4.9865,4.9805,4.9811,4.9792,4.9818,4.9826,4.9828,4.9855,4.9818,4.9822,4.9795,4.9872,4.9795,4.9809,4.9791,4.9787,4.9789,4.9885,4.9888,4.989,4.9892,0,5.004,5.0015,5.002,5.0018,5.0023,5.0018,5.0009,5.0021,4.9956,4.9967,4.9979,4.9982,4.9988,4.9996,4.9994,4.9978,4.9924,4.9918,4.993,4.9943,4.9957,4.9946,4.9717,4.9911,4.9909,4.9908,4.9907,4.9906,5.0177,5.0201,5.0177,5.0185,5.0173,5.0167,5.0186,5.0155,5.0164,5.0163,5.0129,5.0148,5.013,5.012,5.0111,5.0126,5.009,5.011,5.0114,5.0119,5.0127,4.996,5.0126,5.0125,5.0125,5.0124,5.0124,0,5.0348,5.0329,5.0338,5.0327,5.0335,5.0286,5.0274,5.0284,5.0301,5.0288,5.0292,5.0308,5.0316,5.0282,5.0286,5.0305,5.028,5.0308,5.0303,5.03,5.0161,5.0147,5.0327,5.0327,5.0327,5.0327,5.0327,5.0327,5.0438,5.0476,5.0448,5.0481,5.0462,5.0479,5.0476,5.0471,5.046,5.0479,5.0486,5.0464,5.0442,5.0445,5.0451,5.0441,5.0444,5.0479,5.046,5.033,5.031,5.0291,5.0277,5.0482,5.0482,5.0597,5.0598,5.0599]}]]